Location: Delia
(51.6321°N, 112.3740°W)
Time: 13:40:43
(UTC+00:00)

Envisat - Pass Details

Date: 11 December 2021
Orbit: 764 x 766 km, 98.2° (Epoch: 28 January)

Event Time Altitude Azimuth Distance (km) Brightness Sun altitude
Rises 12:49:54 0° 13° (NNE) 3,247 6.3 -22.9°
Reaches altitude 10° 12:52:13 10° 13° (NNE) 2,316 5.5 -22.5°
Maximum altitude 12:57:20 82° 287° (WNW) 780 2.9 -21.7°
Drops below altitude 10° 13:02:24 10° 200° (SSW) 2,298 5.4 -21.0°
Sets 13:04:42 0° 200° (SSW) 3,220 6.2 -20.6°
